Hourly Weather Smolany

Today, 7 July, Tuesday

Time Temperature Precipitation Wind Pressure Humidity
00:00 +14°C° 0 mm 2 mps 743 mmHg 90%
01:00 +13°C° 0 mm 2 mps 743 mmHg 89%
02:00 +13°C° 0 mm 2 mps 743 mmHg 88%
03:00 +13°C° 0 mm 2 mps 743 mmHg 88%
04:00 +11°C° 0 mm 3 mps 744 mmHg 88%
05:00 +11°C° 0 mm 3 mps 744 mmHg 88%
06:00 +12°C° 0 mm 3 mps 744 mmHg 85%
07:00 +13°C° 0 mm 4 mps 744 mmHg 82%
08:00 +14°C° 0 mm 4 mps 745 mmHg 79%
09:00 +15°C° 0.1 mm 4 mps 745 mmHg 75%
10:00 +15°C° 0.1 mm 5 mps 745 mmHg 71%
11:00 +16°C° 0.1 mm 5 mps 745 mmHg 68%
12:00 +16°C° 0.1 mm 5 mps 745 mmHg 67%
13:00 +16°C° 0.1 mm 5 mps 745 mmHg 67%
14:00 +16°C° 0.1 mm 5 mps 745 mmHg 67%
15:00 +16°C° 0.1 mm 5 mps 745 mmHg 67%
16:00 +16°C° 0.1 mm 5 mps 745 mmHg 68%
17:00 +16°C° 0.1 mm 5 mps 745 mmHg 68%
18:00 +15°C° 0.1 mm 5 mps 745 mmHg 74%
19:00 +14°C° 0.1 mm 4 mps 745 mmHg 79%
20:00 +13°C° 0.1 mm 3 mps 746 mmHg 84%
21:00 +12°C° 0 mm 3 mps 746 mmHg 87%
22:00 +11°C° 0 mm 3 mps 746 mmHg 91%
23:00 +10°C° 0 mm 3 mps 746 mmHg 94%

Tomorrow, 8 July, Wednesday

Time Temperature Precipitation Wind Pressure Humidity
00:00 +9°C° 0 mm 3 mps 746 mmHg 94%
01:00 +9°C° 0 mm 3 mps 746 mmHg 94%
02:00 +8°C° 0 mm 3 mps 746 mmHg 94%
03:00 +9°C° 0 mm 3 mps 746 mmHg 94%
04:00 +9°C° 0 mm 3 mps 746 mmHg 93%
05:00 +9°C° 0 mm 3 mps 746 mmHg 93%
06:00 +10°C° 0 mm 4 mps 745 mmHg 86%
07:00 +12°C° 0 mm 5 mps 745 mmHg 80%
08:00 +14°C° 0 mm 5 mps 745 mmHg 73%
09:00 +14°C° 0.1 mm 5 mps 745 mmHg 75%
10:00 +14°C° 0.1 mm 5 mps 745 mmHg 77%
11:00 +13°C° 0.1 mm 5 mps 745 mmHg 80%
12:00 +14°C° 0.3 mm 5 mps 745 mmHg 77%
13:00 +15°C° 0.3 mm 5 mps 745 mmHg 75%
14:00 +16°C° 0.3 mm 5 mps 745 mmHg 73%
15:00 +16°C° 0.6 mm 5 mps 745 mmHg 75%
16:00 +16°C° 0.6 mm 5 mps 745 mmHg 77%
17:00 +17°C° 0.6 mm 4 mps 745 mmHg 79%
18:00 +16°C° 0.5 mm 3 mps 745 mmHg 82%
19:00 +14°C° 0.5 mm 3 mps 745 mmHg 86%
20:00 +14°C° 0.5 mm 2 mps 745 mmHg 90%
21:00 +13°C° 0.2 mm 2 mps 745 mmHg 91%
22:00 +13°C° 0.2 mm 2 mps 746 mmHg 92%
23:00 +12°C° 0.2 mm 2 mps 746 mmHg 93%

Day after tomorrow, 9 July, Thursday

Time Temperature Precipitation Wind Pressure Humidity
00:00 +10°C° 0 mm 2 mps 746 mmHg 94%
01:00 +10°C° 0 mm 2 mps 746 mmHg 95%
02:00 +9°C° 0 mm 3 mps 747 mmHg 96%
03:00 +9°C° 0 mm 3 mps 747 mmHg 96%
04:00 +8°C° 0 mm 3 mps 747 mmHg 96%
05:00 +8°C° 0 mm 3 mps 747 mmHg 96%
06:00 +10°C° 0 mm 3 mps 747 mmHg 92%
07:00 +11°C° 0 mm 4 mps 748 mmHg 89%
08:00 +13°C° 0 mm 4 mps 748 mmHg 86%
09:00 +14°C° 0.1 mm 4 mps 749 mmHg 80%
10:00 +15°C° 0.1 mm 5 mps 749 mmHg 75%
11:00 +17°C° 0.1 mm 5 mps 749 mmHg 70%
12:00 +17°C° 0.2 mm 5 mps 749 mmHg 68%
13:00 +19°C° 0.2 mm 5 mps 749 mmHg 65%
14:00 +19°C° 0.2 mm 5 mps 749 mmHg 63%
15:00 +19°C° 0.2 mm 4 mps 749 mmHg 64%
16:00 +19°C° 0.2 mm 4 mps 749 mmHg 66%
17:00 +19°C° 0.2 mm 4 mps 749 mmHg 68%
18:00 +18°C° 0 mm 3 mps 749 mmHg 73%
19:00 +17°C° 0 mm 2 mps 749 mmHg 78%
20:00 +16°C° 0 mm 1 mps 749 mmHg 83%
21:00 +15°C° 0 mm 1 mps 750 mmHg 85%
22:00 +14°C° 0 mm 1 mps 750 mmHg 87%
23:00 +12°C° 0 mm 1 mps 750 mmHg 89%

10 July, Friday

Time Temperature Precipitation Wind Pressure Humidity
00:00 +12°C° 0 mm 1 mps 750 mmHg 91%
01:00 +12°C° 0 mm 2 mps 750 mmHg 92%
02:00 +10°C° 0 mm 2 mps 750 mmHg 93%
03:00 +10°C° 0 mm 2 mps 749 mmHg 93%
04:00 +10°C° 0 mm 3 mps 749 mmHg 92%
05:00 +11°C° 0 mm 3 mps 749 mmHg 92%
06:00 +12°C° 0 mm 3 mps 749 mmHg 87%
07:00 +14°C° 0 mm 4 mps 749 mmHg 83%
08:00 +16°C° 0 mm 5 mps 748 mmHg 78%
09:00 +19°C° 0 mm 5 mps 748 mmHg 73%
10:00 +20°C° 0 mm 6 mps 748 mmHg 69%
11:00 +21°C° 0 mm 6 mps 748 mmHg 64%
12:00 +22°C° 0 mm 6 mps 747 mmHg 64%
13:00 +23°C° 0 mm 7 mps 747 mmHg 63%
14:00 +24°C° 0 mm 7 mps 746 mmHg 62%
15:00 +24°C° 0 mm 7 mps 745 mmHg 66%
16:00 +24°C° 0 mm 6 mps 745 mmHg 69%
17:00 +24°C° 0 mm 6 mps 744 mmHg 72%
18:00 +23°C° 0.6 mm 6 mps 743 mmHg 77%
19:00 +22°C° 0.6 mm 7 mps 743 mmHg 83%
20:00 +21°C° 0.6 mm 7 mps 742 mmHg 88%
21:00 +20°C° 1.9 mm 5 mps 742 mmHg 90%
22:00 +18°C° 1.9 mm 4 mps 743 mmHg 91%
23:00 +16°C° 1.9 mm 3 mps 743 mmHg 93%

11 July, Saturday

Time Temperature Precipitation Wind Pressure Humidity
00:00 +16°C° 0 mm 3 mps 744 mmHg 93%
01:00 +15°C° 0 mm 4 mps 744 mmHg 93%
02:00 +15°C° 0 mm 5 mps 745 mmHg 93%
03:00 +14°C° 0 mm 5 mps 745 mmHg 92%
04:00 +13°C° 0 mm 4 mps 746 mmHg 92%
05:00 +11°C° 0 mm 4 mps 746 mmHg 91%
06:00 +12°C° 0 mm 4 mps 747 mmHg 87%
07:00 +13°C° 0 mm 5 mps 747 mmHg 83%
08:00 +13°C° 0 mm 6 mps 748 mmHg 79%
09:00 +14°C° 0 mm 5 mps 748 mmHg 74%
10:00 +15°C° 0 mm 5 mps 749 mmHg 70%
11:00 +16°C° 0 mm 5 mps 749 mmHg 66%
12:00 +17°C° 0 mm 5 mps 749 mmHg 64%
13:00 +17°C° 0 mm 5 mps 749 mmHg 63%
14:00 +19°C° 0 mm 5 mps 749 mmHg 61%
15:00 +17°C° 0 mm 5 mps 749 mmHg 62%
16:00 +17°C° 0 mm 5 mps 749 mmHg 64%
17:00 +17°C° 0 mm 5 mps 749 mmHg 65%
18:00 +17°C° 0 mm 4 mps 749 mmHg 70%
19:00 +16°C° 0 mm 3 mps 749 mmHg 76%
20:00 +14°C° 0 mm 3 mps 749 mmHg 81%
21:00 +13°C° 0 mm 3 mps 749 mmHg 85%
22:00 +12°C° 0 mm 3 mps 749 mmHg 88%
23:00 +11°C° 0 mm 3 mps 749 mmHg 92%

12 July, Sunday

Time Temperature Precipitation Wind Pressure Humidity
00:00 +11°C° 0 mm 3 mps 749 mmHg 92%
01:00 +10°C° 0 mm 3 mps 749 mmHg 92%
02:00 +10°C° 0 mm 3 mps 749 mmHg 93%
03:00 +10°C° 0 mm 3 mps 749 mmHg 93%
04:00 +10°C° 0 mm 3 mps 749 mmHg 93%
05:00 +9°C° 0 mm 3 mps 749 mmHg 92%
06:00 +11°C° 0 mm 4 mps 749 mmHg 86%
07:00 +13°C° 0 mm 4 mps 749 mmHg 80%
08:00 +14°C° 0 mm 5 mps 750 mmHg 74%
09:00 +15°C° 0.1 mm 5 mps 750 mmHg 70%
10:00 +16°C° 0.1 mm 5 mps 750 mmHg 67%
11:00 +17°C° 0.1 mm 5 mps 750 mmHg 64%
12:00 +17°C° 0.1 mm 5 mps 750 mmHg 63%
13:00 +17°C° 0.1 mm 5 mps 750 mmHg 62%
14:00 +17°C° 0.1 mm 6 mps 750 mmHg 61%
15:00 +17°C° 0.2 mm 5 mps 750 mmHg 64%
16:00 +16°C° 0.2 mm 5 mps 750 mmHg 68%
17:00 +16°C° 0.2 mm 5 mps 750 mmHg 71%
18:00 +15°C° 0.1 mm 4 mps 750 mmHg 77%
19:00 +14°C° 0.1 mm 4 mps 750 mmHg 82%
20:00 +13°C° 0.1 mm 3 mps 750 mmHg 88%
21:00 +12°C° 0 mm 3 mps 751 mmHg 91%
22:00 +11°C° 0 mm 3 mps 751 mmHg 93%
23:00 +10°C° 0 mm 2 mps 751 mmHg 96%
Show more